Theta_e
343 343 344 349 349 350 349 350 350 349 348 348 348 348 347 346 345 344 344 343 343 342 342 343 343 347 347 348 348 348 347 346 346 346 346 345 344 344 343 342 340 340 343 343 342 344 344 344 344 343 342 341 341 340 340 340 340 341 341 341 341 341 343 342 338 337 336 337 338 338 338 338 340 339 338 337 337 336 335 335 332 330 330 330 334
342 343 344 346 350 349 350 349 349 349 349 348 348 347 347 345 344 343 344 343 343 343 342 342 342 342 346 347 346 346 345 345 347 346 346 346 347 346 344 343 342 341 341 341 341 342 343 342 342 342 342 341 340 340 340 339 340 340 340 341 341 341 341 341 338 335 335 335 336 336 335 336 336 337 338 337 336 335 333 334 334 328 326 334 333
344 344 345 347 349 349 349 349 349 349 348 348 348 347 345 344 343 344 343 342 343 343 343 343 343 341 343 344 345 344 345 345 345 345 345 346 348 346 343 343 342 341 342 342 342 342 342 343 342 342 341 340 339 339 339 339 339 339 340 339 340 340 341 342 341 335 334 334 334 334 335 336 334 335 335 336 336 335 333 333 333 333 329 333 333
343 344 345 346 348 349 349 348 348 348 347 347 346 346 345 344 344 342 340 343 343 342 342 342 343 342 342 343 344 343 344 345 345 345 344 345 346 345 344 341 340 340 341 341 341 340 340 339 341 341 339 338 338 338 338 338 338 338 339 339 339 340 340 340 339 336 334 334 334 332 329 324 329 334 334 336 336 335 335 333 332 332 333 332 334
343 343 343 344 345 347 348 348 349 348 347 347 345 344 344 344 343 341 342 342 341 342 342 342 341 341 342 342 342 342 343 344 344 344 344 344 343 343 342 343 342 342 341 342 341 341 341 339 341 341 339 338 338 338 338 337 338 338 338 340 340 340 340 339 338 337 335 334 333 330 324 324 325 333 335 335 334 334 334 333 333 333 331 331 333
342 343 344 344 345 346 348 348 349 348 347 346 345 344 343 342 341 343 342 342 342 342 342 343 342 342 342 342 343 342 342 342 344 345 344 343 343 343 343 343 342 342 342 342 341 341 340 340 340 340 340 338 337 337 337 337 338 339 339 339 340 341 338 338 337 336 335 334 332 326 324 325 326 329 335 337 334 333 333 334 333 332 331 331 331
342 343 343 343 344 345 346 348 349 348 347 346 346 345 344 343 344 343 343 343 343 343 343 343 343 342 342 342 341 342 342 343 343 343 342 343 343 343 343 344 345 344 343 340 341 341 340 340 340 340 340 338 337 336 337 337 338 338 339 339 339 340 337 337 336 336 334 328 324 324 324 325 325 327 335 337 335 334 334 334 334 333 333 332 331
342 343 343 342 343 345 346 348 348 347 347 346 346 345 344 344 344 344 344 343 343 342 342 341 341 342 341 341 340 342 342 341 341 342 343 342 342 343 345 346 345 344 343 341 340 340 342 341 340 340 339 338 337 337 337 337 338 339 338 339 339 339 339 336 337 335 334 326 325 324 324 324 326 326 337 336 335 334 334 334 334 334 332 332 331
341 341 341 342 342 344 346 347 348 348 347 346 345 344 342 343 344 343 343 343 342 341 339 338 339 339 339 338 340 340 340 339 339 341 343 343 342 342 342 343 343 343 343 342 340 342 341 341 340 339 339 338 337 337 337 337 338 338 338 338 339 338 338 336 335 333 328 327 327 327 327 328 328 328 335 335 335 334 334 334 334 334 333 334 333
339 339 341 341 341 343 346 347 348 347 346 345 344 343 342 341 342 342 343 341 338 337 337 338 338 339 340 340 339 340 340 339 338 338 340 342 343 343 342 342 341 342 341 341 341 340 340 339 339 339 339 338 336 336 336 337 337 337 338 338 338 338 338 335 332 330 324 325 327 328 332 335 329 332 336 337 335 333 332 334 335 336 335 334 332
339 340 341 341 342 342 347 348 348 347 345 345 344 343 341 341 342 341 340 340 338 338 338 339 341 341 342 342 342 341 341 341 341 340 341 343 343 343 343 342 341 341 341 341 341 340 340 340 340 339 339 338 336 336 336 336 337 337 337 337 337 338 338 336 329 322 322 325 325 324 329 334 329 332 339 338 336 335 335 337 336 333 334 334 333
339 340 341 341 346 342 347 347 347 346 345 345 344 342 341 341 340 340 340 339 340 341 343 343 344 343 342 342 341 341 340 340 339 339 341 341 341 342 342 342 342 341 341 341 340 338 339 339 339 339 339 338 336 336 335 335 336 336 336 336 336 336 336 335 324 321 322 323 324 325 325 327 329 333 338 340 340 338 338 336 336 335 334 335 335
339 340 341 341 341 341 345 346 345 346 346 345 343 341 340 340 340 340 340 342 343 343 343 342 342 341 341 341 340 339 339 338 338 338 339 339 340 341 340 341 341 341 341 340 340 339 339 340 339 339 338 337 336 336 335 335 335 335 335 334 334 334 333 332 323 324 324 323 323 322 324 325 328 336 337 339 339 339 338 337 338 338 338 338 337
338 340 342 341 342 345 340 343 345 346 345 344 344 343 340 341 340 344 344 343 343 342 341 341 340 340 340 339 338 337 337 336 336 336 337 338 338 339 339 340 339 339 339 340 339 339 338 338 339 339 338 337 336 335 334 334 334 333 334 334 334 333 330 329 327 323 324 322 323 321 321 326 329 335 336 338 339 338 338 337 337 338 338 337 337
337 339 340 340 341 340 342 340 342 342 343 344 343 342 341 342 341 344 343 342 342 341 341 340 339 339 338 336 335 335 336 336 337 338 338 338 339 339 338 339 338 338 337 339 338 338 337 338 338 338 337 336 335 334 333 333 333 333 333 334 333 331 328 324 324 322 323 322 319 320 320 325 335 335 336 337 339 339 338 337 337 337 338 337 337
339 339 340 340 339 339 339 341 335 337 340 341 341 342 344 344 343 342 342 342 341 340 339 339 339 338 336 336 337 337 337 337 337 337 337 337 337 337 337 337 337 337 337 336 336 336 336 336 336 336 336 334 334 333 332 331 331 332 332 333 331 330 328 326 323 321 319 319 320 321 321 325 334 335 335 336 337 338 337 336 336 336 335 336 336
339 338 339 339 339 338 338 337 334 331 332 335 338 340 341 343 343 343 342 343 341 339 338 338 338 337 338 339 339 338 338 338 337 337 337 337 337 336 336 336 336 336 336 337 336 337 337 335 335 335 334 333 333 332 331 331 331 331 331 331 330 328 326 326 324 321 320 321 322 321 322 327 333 335 334 334 336 338 336 335 335 335 335 335 336
337 338 338 339 338 338 337 334 334 333 332 333 334 338 339 341 340 341 342 341 341 340 339 339 338 339 339 338 338 338 338 337 336 337 338 336 336 336 335 335 335 335 335 335 334 334 334 333 333 333 333 332 332 331 330 331 331 329 330 330 328 326 325 325 320 320 321 323 320 322 324 334 334 335 335 335 336 337 336 336 335 335 335 335 336
336 338 339 338 338 338 336 335 333 332 332 333 333 334 334 337 338 338 339 340 340 339 339 337 338 337 335 334 334 333 332 332 332 332 332 332 333 334 335 334 334 334 334 334 333 334 333 332 332 332 332 332 331 330 330 330 331 330 330 329 327 324 323 323 321 319 320 320 321 322 324 333 335 335 334 335 337 336 336 336 336 335 336 336 334
335 337 337 337 338 337 336 335 333 332 331 332 332 332 331 331 334 336 337 337 338 337 336 334 333 330 329 328 326 325 324 323 323 326 328 329 330 329 334 335 334 334 334 333 332 332 332 332 332 332 332 331 330 330 331 332 332 332 331 328 324 322 318 318 320 321 321 322 322 322 330 333 335 334 334 335 337 336 336 335 335 335 335 335 336
329 333 335 336 337 337 336 334 333 332 332 332 332 332 331 330 330 331 332 333 334 334 333 327 325 325 324 324 324 324 324 324 324 324 324 325 322 325 333 334 334 333 333 332 333 332 332 331 331 331 330 330 327 326 326 329 331 332 331 324 318 317 318 319 320 321 320 319 320 324 331 332 334 334 335 336 336 336 335 334 335 336 335 335 335
324 326 331 336 336 336 335 335 333 332 332 333 333 332 332 331 330 330 331 330 329 328 328 329 329 324 323 325 324 324 324 323 324 326 324 325 324 322 326 331 332 331 332 332 332 332 331 331 331 331 331 330 324 317 317 321 323 325 324 319 318 318 318 319 319 320 319 318 319 326 331 332 332 334 334 335 336 336 334 334 335 335 335 335 334
322 323 326 334 336 336 336 335 334 333 332 332 332 331 330 330 329 328 328 327 329 329 328 328 325 324 323 324 324 324 324 323 324 325 325 321 323 321 323 326 326 325 328 330 331 331 332 332 331 332 332 329 320 319 318 319 319 320 318 316 318 318 318 318 319 320 319 317 317 327 331 332 331 333 334 335 335 334 333 333 334 335 335 334 331
323 322 323 328 333 334 335 335 334 333 332 331 331 330 330 329 329 328 327 326 327 328 328 327 326 325 324 324 324 323 323 323 326 326 323 320 319 319 320 321 321 320 320 322 326 330 331 332 331 330 328 321 317 316 317 320 319 318 317 318 318 318 318 317 320 321 318 319 318 327 331 332 331 331 334 334 334 333 332 331 334 333 332 332 330
323 323 323 325 328 330 330 334 333 333 332 332 330 329 329 329 328 327 327 326 326 326 327 327 326 325 325 324 324 324 322 322 322 321 319 319 318 319 319 319 318 317 315 317 317 318 318 318 318 319 316 316 316 318 318 318 317 318 318 317 316 318 320 321 322 318 316 314 317 325 329 331 332 331 332 334 333 333 330 329 333 332 330 331 331
324 322 322 324 326 327 326 331 333 332 332 330 329 328 328 326 326 327 326 326 326 325 323 325 324 325 323 322 323 322 320 320 319 319 320 320 319 319 319 318 318 318 316 317 318 318 316 316 318 319 318 319 319 320 318 319 319 319 320 318 316 318 320 321 322 318 315 315 316 323 327 329 329 331 331 332 333 331 330 330 331 332 329 330 327
323 322 323 324 325 326 326 329 331 330 330 329 328 326 325 325 326 325 324 324 324 324 322 323 324 324 321 321 322 320 319 319 318 317 319 320 319 319 318 318 319 319 318 317 318 320 318 317 319 320 319 322 322 319 323 324 323 323 320 318 317 318 320 321 320 316 313 313 316 321 325 326 324 325 328 329 329 329 328 328 328 328 327 327 327
322 322 323 324 324 325 326 326 327 327 326 325 325 323 323 324 325 323 323 323 322 322 322 322 323 323 320 322 320 320 320 318 319 317 319 320 321 321 320 319 320 320 318 317 318 317 318 317 317 319 323 322 320 319 323 323 320 321 320 319 318 320 321 319 319 316 314 313 313 319 322 323 320 321 325 327 327 328 328 328 328 328 330 328 328
322 322 323 324 324 325 325 325 325 325 324 324 323 323 322 324 323 322 322 323 323 322 321 321 322 321 320 321 319 319 317 320 319 320 318 318 318 319 318 319 318 320 318 318 319 319 319 318 320 317 318 318 317 320 319 321 321 319 320 319 317 321 321 319 319 316 313 312 312 317 321 322 319 320 323 323 325 328 329 329 329 328 328 327 326
323 323 323 324 325 325 325 325 325 326 325 324 323 322 322 322 321 322 322 321 322 322 318 319 322 321 321 320 320 320 318 319 320 318 318 318 316 317 317 317 317 319 317 320 318 317 318 317 317 317 318 315 317 317 316 318 322 320 318 316 319 321 321 319 318 316 315 313 313 315 318 319 319 319 321 322 325 327 327 328 327 327 328 325 324
323 323 323 324 324 325 325 324 325 324 325 323 322 323 323 322 322 321 321 320 320 320 320 320 321 321 322 321 320 320 320 319 319 319 318 317 318 318 318 319 317 319 319 320 318 317 317 318 319 317 316 317 317 316 316 316 317 321 319 317 318 320 321 317 316 316 316 313 313 312 316 317 318 319 319 320 324 326 326 326 327 327 327 325 323
323 323 324 324 324 325 325 324 325 325 325 324 322 323 322 323 323 321 320 320 318 319 320 320 319 320 321 321 320 320 319 319 320 320 319 318 318 318 318 318 319 319 320 319 319 318 318 318 317 316 317 318 316 318 317 317 319 319 316 319 321 322 319 317 316 315 315 314 313 313 312 312 313 316 318 318 321 323 323 323 325 325 325 323 323
324 325 324 324 324 325 325 325 325 324 325 324 323 324 323 324 323 321 321 321 320 318 321 320 320 320 321 322 321 321 320 321 319 320 319 319 319 319 318 320 321 321 318 319 318 318 318 318 317 317 317 317 318 320 320 318 319 318 316 317 318 319 316 316 314 315 315 313 312 311 311 308 307 310 313 316 318 321 321 321 322 322 322 321 322
324 325 325 324 325 326 326 326 325 325 324 325 324 324 324 324 323 322 322 321 319 318 320 320 320 320 321 322 322 321 321 321 321 319 319 319 320 319 319 320 318 320 321 319 318 317 318 317 316 315 317 316 317 320 315 315 314 314 315 317 320 318 317 316 313 313 312 309 307 306 307 307 305 304 306 312 314 318 319 319 318 319 320 321 321
325 325 325 325 325 325 326 326 324 325 324 325 324 324 323 323 323 322 323 322 320 321 321 322 320 322 322 323 323 322 322 321 322 323 321 320 320 320 318 320 320 319 320 319 319 317 316 320 318 316 314 313 317 316 314 313 317 318 316 319 319 318 315 316 315 312 310 307 306 303 304 303 303 304 304 304 308 313 315 317 317 316 316 317 319
326 326 326 325 324 325 324 325 324 325 324 325 324 324 324 324 324 322 323 322 321 321 321 322 322 322 324 324 324 324 323 321 322 323 322 321 320 320 320 319 319 319 319 317 318 318 317 317 319 318 315 314 314 316 316 316 313 314 314 316 316 316 314 313 310 308 306 306 304 302 302 301 300 300 303 303 304 308 313 313 313 314 314 314 314
328 327 326 325 324 324 323 324 323 324 324 325 324 324 324 324 324 324 324 323 322 322 322 322 322 322 324 324 324 324 323 323 323 323 323 322 319 321 320 321 320 320 319 317 317 318 319 320 316 314 314 312 313 312 312 312 313 313 312 312 313 314 313 311 308 306 305 303 300 300 300 299 300 303 299 301 304 305 310 313 313 311 312 312 312
328 327 327 326 325 324 324 324 324 325 325 325 324 324 325 324 323 324 321 324 323 323 322 322 321 321 323 324 325 325 324 324 323 324 323 323 322 321 321 321 322 321 320 318 318 317 318 318 316 316 315 313 312 311 312 313 314 314 311 311 313 312 311 309 306 304 302 299 298 298 298 298 299 299 300 300 300 301 302 306 309 310 311 312 311
329 328 327 327 326 325 324 323 323 324 324 325 324 324 324 323 323 322 321 324 323 322 322 321 321 320 321 324 325 325 324 325 324 324 324 323 322 321 320 321 322 321 320 318 315 318 317 315 316 315 314 317 316 313 313 312 314 312 314 313 314 312 311 308 306 304 301 299 299 299 300 298 299 299 299 299 298 297 297 296 296 297 304 311 310
328 329 327 327 327 326 325 324 323 324 324 324 323 323 322 321 321 320 319 321 323 320 321 321 321 320 320 323 325 325 325 325 325 325 325 324 322 321 321 320 321 320 319 318 315 316 318 317 315 316 316 314 314 315 312 310 308 311 310 311 311 311 309 308 306 302 300 298 298 297 297 296 298 297 298 297 298 296 297 296 296 295 298 307 309
327 328 327 327 327 327 325 324 325 324 324 323 322 323 322 321 321 321 320 321 322 321 320 320 320 320 320 322 325 325 325 325 325 326 325 323 323 321 322 320 321 321 320 319 319 317 318 319 316 314 315 313 314 313 312 309 309 309 311 309 309 309 307 307 305 301 299 298 297 296 294 295 294 295 296 297 296 296 295 295 295 295 295 295 301
325 326 326 327 327 327 326 326 326 325 325 324 323 323 324 324 322 321 321 321 321 320 320 321 322 321 320 322 325 325 326 326 325 326 326 325 323 322 321 322 321 321 321 320 318 315 318 317 317 314 312 313 314 313 313 310 307 307 306 305 305 307 305 306 303 299 298 298 296 294 293 293 294 294 295 296 295 295 295 294 294 295 295 296 297
324 325 326 326 326 326 327 327 327 327 326 326 325 323 324 324 324 322 322 320 323 323 322 322 324 324 322 322 325 326 326 326 326 326 326 326 325 323 322 322 322 321 320 319 317 318 319 318 317 317 313 312 312 312 313 309 305 306 304 304 301 303 305 304 304 300 299 297 294 293 293 293 294 294 294 295 294 294 295 294 294 294 295 297 296
323 323 325 325 326 325 326 327 327 327 327 327 325 326 324 324 322 322 323 323 322 324 325 325 325 326 324 324 325 327 326 326 326 326 327 326 325 323 322 322 322 321 321 320 318 319 319 318 317 315 315 314 313 314 310 310 307 307 304 302 302 299 297 302 299 300 298 295 293 293 293 292 292 293 292 295 294 293 293 293 294 294 295 295 295
323 323 324 325 326 325 326 327 328 327 328 326 326 328 326 325 324 321 321 322 321 323 323 324 325 326 326 325 325 326 327 327 327 327 326 326 326 325 323 322 322 321 321 321 319 320 320 320 318 316 316 317 315 313 313 310 309 307 303 298 297 297 297 299 297 297 297 293 294 292 291 291 291 291 291 293 293 293 293 292 292 293 294 294 294
322 323 324 325 325 325 325 326 328 328 328 327 328 329 328 327 325 323 322 321 321 322 322 323 324 324 326 327 326 327 327 327 327 327 326 325 326 325 324 322 321 321 321 321 320 319 319 319 318 318 317 316 316 313 313 310 307 306 307 302 297 296 297 299 298 292 297 295 294 293 291 291 290 290 290 292 293 292 293 292 291 293 293 294 292
323 324 324 324 324 325 325 325 326 327 328 328 328 327 328 328 327 325 324 323 322 323 325 326 326 327 327 326 327 327 328 327 327 327 327 326 326 325 324 324 322 321 320 321 320 319 320 320 319 318 318 316 314 312 311 312 308 306 304 304 303 301 297 298 295 292 292 294 294 293 293 293 291 290 291 290 291 291 293 291 291 292 293 293 291
323 323 324 324 324 324 324 324 325 325 328 328 327 328 328 328 327 326 325 325 324 324 325 326 327 326 327 327 327 327 328 328 328 328 327 326 325 325 325 324 323 322 320 321 321 320 320 320 320 320 319 318 315 314 311 310 310 307 303 302 300 298 296 294 295 296 293 292 292 294 293 292 292 291 290 290 291 291 291 291 291 292 292 291 289
322 323 323 324 324 324 324 324 325 325 326 327 327 327 327 328 327 327 325 325 326 325 324 325 325 325 326 327 326 327 327 328 328 328 327 327 323 325 325 324 323 321 319 321 320 320 320 319 318 319 318 317 316 314 312 309 309 306 302 299 297 297 295 293 291 290 288 290 290 291 291 292 291 292 290 290 289 290 291 291 290 291 292 291 289
322 323 323 324 324 324 323 323 324 325 325 326 326 327 326 325 327 327 326 325 324 324 324 325 325 326 325 326 326 326 326 327 328 328 327 327 326 325 325 324 323 322 319 321 320 320 320 320 319 319 319 317 315 313 311 310 310 307 307 303 300 294 294 293 292 290 290 290 290 291 290 289 288 290 291 291 289 290 290 291 291 291 290 289 287
322 322 322 323 323 323 323 323 324 325 325 325 326 326 326 326 326 326 326 325 324 324 324 325 325 325 325 325 325 326 326 326 327 327 327 327 327 325 325 325 323 321 319 321 320 320 319 319 319 318 317 317 315 313 310 309 308 305 304 303 301 298 293 289 288 291 289 287 288 290 289 289 287 287 290 290 289 289 290 290 290 290 289 288 287
Wind_Speed
5 5 3 7 9 10 11 13 13 13 13 13 13 13 14 14 13 13 14 15 14 13 13 12 11 14 14 16 17 17 17 17 18 17 16 16 16 15 17 18 16 17 17 18 17 18 18 17 18 18 17 17 17 17 17 16 16 16 16 15 15 15 16 18 19 19 18 18 18 18 16 17 18 18 18 18 18 18 14 15 14 8 6 10 16
9 4 3 5 10 10 11 12 13 13 13 13 14 13 14 13 12 13 16 15 13 13 13 13 12 11 13 16 16 17 17 16 17 17 17 17 17 18 18 18 17 18 17 17 17 17 18 17 18 17 17 17 17 17 16 16 16 15 15 15 15 15 13 11 15 17 16 17 18 16 16 16 16 17 18 18 17 17 15 16 16 8 5 15 17
8 6 4 5 9 10 11 12 13 13 13 13 12 13 13 12 12 15 14 13 13 14 14 13 13 12 12 13 15 16 16 17 17 16 16 17 17 18 19 19 19 18 18 18 18 18 18 18 18 18 17 16 16 16 16 16 15 15 15 15 15 15 16 15 13 15 16 18 18 15 14 16 17 16 18 18 18 17 14 16 17 14 9 15 15
10 6 4 6 9 10 13 12 12 13 13 12 12 12 13 13 13 13 11 14 15 13 13 15 14 13 13 14 16 16 16 17 17 16 16 17 17 18 18 19 18 18 18 18 18 18 18 18 18 17 17 16 16 16 15 15 15 15 15 14 14 14 16 16 14 14 14 14 13 9 6 5 8 17 17 18 16 17 14 17 17 17 16 15 17
9 6 4 4 5 9 12 13 13 13 12 12 12 12 11 12 13 12 13 14 12 13 13 13 15 14 13 14 15 16 16 17 16 16 16 15 15 15 16 17 17 18 18 18 18 18 18 18 18 17 17 16 16 15 15 15 15 15 15 15 15 14 13 13 14 14 14 12 11 6 5 5 5 14 17 19 16 13 14 16 17 17 13 15 17
9 6 6 6 6 7 11 14 14 13 12 12 12 12 12 12 11 15 14 13 13 13 13 14 15 14 14 15 15 16 16 16 17 16 16 16 15 15 15 15 16 17 18 18 18 17 17 17 17 17 17 16 15 15 14 15 15 15 15 15 15 14 13 12 12 14 12 10 8 5 5 5 4 5 17 17 15 14 16 17 18 16 16 16 15
11 6 7 7 6 7 10 13 13 13 13 12 12 12 12 12 12 12 13 14 14 14 14 14 15 14 14 13 14 15 17 17 17 16 16 16 15 15 15 16 17 17 17 18 17 17 17 17 17 17 17 16 15 14 14 14 14 15 15 15 15 15 13 11 11 13 12 6 5 3 4 4 3 1 14 16 14 16 18 17 16 17 17 15 15
8 7 7 6 6 9 11 12 13 13 13 13 12 11 12 13 13 13 14 14 14 14 13 13 13 14 13 13 14 15 15 15 16 16 16 15 15 15 15 15 16 16 17 18 17 17 16 16 16 16 16 15 14 14 14 14 15 15 15 15 15 13 11 11 11 12 10 6 4 4 5 4 4 4 14 13 14 15 15 14 14 16 17 14 8
8 7 7 6 6 13 11 12 14 14 14 14 12 11 11 13 14 13 13 13 13 13 13 12 13 13 13 13 12 13 14 15 13 16 16 14 14 15 15 15 15 15 16 18 17 16 16 16 16 16 16 14 14 13 13 14 14 14 14 14 14 13 11 11 10 9 5 5 6 5 6 6 5 4 10 13 11 12 12 7 7 11 12 10 12
8 6 6 6 6 11 11 12 12 13 15 14 13 12 11 12 12 12 12 12 11 9 11 13 13 13 14 13 13 13 13 14 14 13 13 14 14 14 14 14 14 15 15 16 16 15 15 15 15 15 15 14 13 13 13 13 14 14 14 14 14 13 12 9 9 7 6 5 6 6 7 9 5 4 8 10 11 8 5 6 6 8 6 8 12
8 7 5 5 8 10 11 12 9 11 14 14 13 12 12 12 13 13 12 11 11 13 12 13 14 14 14 13 13 13 13 13 13 13 14 14 14 14 13 14 15 14 15 15 15 15 14 14 14 14 14 13 12 12 12 12 13 13 13 13 13 12 11 9 7 5 6 6 6 5 7 10 4 3 11 10 9 10 2 7 7 8 11 12 11
8 6 6 5 10 9 11 10 10 11 11 12 13 12 12 12 12 11 11 12 11 13 14 14 14 14 15 14 13 13 12 12 11 13 13 13 14 14 14 14 15 15 15 14 14 14 13 13 13 13 13 12 11 11 11 11 11 11 12 12 13 12 10 8 5 6 6 6 6 5 6 6 6 7 13 12 12 12 12 11 12 10 9 11 10
9 7 6 6 5 8 8 8 9 10 10 11 13 12 12 11 12 12 12 13 14 14 15 15 14 14 14 14 13 13 12 11 11 11 12 12 14 14 13 14 14 14 14 14 14 13 13 13 12 12 12 11 10 10 10 10 10 10 10 10 11 12 9 8 4 6 6 5 5 5 5 4 5 11 12 12 12 11 11 11 11 12 12 12 10
9 8 7 6 6 9 7 6 8 9 9 10 11 11 11 11 11 14 14 14 14 15 14 15 14 14 14 13 12 11 11 10 10 10 10 11 12 12 12 13 13 13 13 13 13 12 12 11 11 11 10 10 10 9 9 9 9 9 9 10 11 11 10 6 4 5 6 5 4 4 4 4 5 13 13 13 13 12 11 11 12 12 11 11 11
10 10 8 7 6 4 6 4 6 9 8 8 9 8 9 9 13 14 14 14 14 14 14 14 14 13 13 12 11 11 11 10 10 10 10 11 11 12 11 12 12 12 12 12 12 11 11 10 10 10 9 9 8 8 8 8 9 10 10 10 9 8 8 4 4 5 6 5 4 5 5 4 10 13 12 12 13 12 11 11 12 12 13 12 12
11 10 9 8 6 4 3 4 8 8 8 7 7 7 7 11 13 14 13 13 13 13 13 13 13 13 13 13 12 11 11 10 10 9 9 9 9 10 10 10 11 11 11 10 10 10 10 9 9 8 8 8 7 7 7 7 6 8 8 9 9 10 9 5 5 4 5 5 4 4 4 4 11 12 12 12 12 12 11 12 13 13 12 13 13
10 9 10 9 8 5 4 3 5 8 7 7 9 9 9 10 11 11 11 11 12 12 12 13 13 13 14 14 14 12 12 12 11 9 10 10 10 9 9 10 10 10 10 10 9 9 8 8 7 7 7 7 7 6 5 4 5 6 7 8 8 9 9 6 5 4 5 4 4 4 4 4 9 11 11 12 13 13 13 13 12 13 12 12 12
8 9 9 9 8 6 5 5 4 4 4 6 9 9 8 9 9 10 9 9 10 11 12 12 12 14 13 12 12 12 12 11 11 11 10 9 8 8 9 9 9 9 9 8 8 8 7 7 6 6 6 6 5 4 2 2 2 3 4 5 6 7 7 7 3 3 4 4 4 3 4 5 10 10 11 11 11 11 12 12 12 12 12 11 12
7 9 8 9 9 7 6 5 4 4 4 4 4 7 9 9 10 10 9 10 10 11 12 12 12 11 12 12 12 11 10 11 11 11 10 9 9 9 8 9 8 8 8 7 8 7 7 6 6 5 4 4 3 1 1 2 2 1 2 3 5 6 7 4 3 3 4 4 4 4 4 8 9 10 10 10 11 11 12 13 12 12 12 12 14
7 8 8 7 9 8 6 5 5 5 4 4 5 5 8 9 9 10 10 10 10 10 11 12 12 12 11 12 12 10 9 7 11 9 10 10 9 6 7 7 8 8 7 7 7 6 5 5 4 4 3 2 1 2 4 4 5 4 3 4 5 6 4 3 4 3 4 4 3 4 5 9 9 9 10 11 11 12 13 12 12 12 11 14 15
5 7 8 7 8 9 8 6 5 5 5 5 5 5 7 9 7 9 10 10 10 10 11 12 11 11 10 11 9 7 6 5 5 6 7 6 7 8 8 8 7 6 6 5 5 4 4 3 2 2 2 1 3 5 6 6 7 7 5 6 6 4 3 4 5 4 4 4 4 4 6 7 9 9 9 11 11 13 12 11 12 12 14 14 13
4 6 7 9 8 8 9 7 6 6 6 5 4 5 5 7 6 4 5 7 8 9 7 6 7 6 9 8 6 6 5 5 5 6 5 5 5 6 6 6 5 4 3 4 4 2 2 2 1 2 2 1 2 3 3 5 6 7 6 4 4 3 2 5 5 4 4 3 3 4 7 8 9 10 10 11 13 13 11 11 12 13 15 14 15
3 5 7 9 8 8 8 8 8 7 7 6 5 5 4 6 5 4 4 5 6 6 5 5 5 5 5 5 5 5 5 5 5 5 5 5 4 4 3 3 4 3 1 2 2 3 4 3 4 4 4 2 1 3 3 5 4 6 4 1 1 3 3 3 6 5 4 2 3 5 6 9 9 10 10 11 12 12 11 12 13 13 14 15 15
5 5 7 7 8 8 9 8 8 8 7 6 6 5 5 5 6 5 5 4 4 5 5 5 5 5 5 5 4 4 4 4 7 10 8 4 3 3 3 2 3 3 2 2 3 3 5 5 5 6 3 2 3 4 3 2 2 1 0 1 3 3 2 2 6 4 4 3 3 6 8 10 10 10 10 11 12 12 11 12 13 13 14 15 15
5 4 4 6 9 9 8 8 7 9 8 7 7 6 6 5 6 6 5 5 5 5 5 5 5 5 6 5 4 5 5 5 5 5 3 4 3 3 2 2 2 2 3 2 2 3 3 4 4 3 4 3 3 3 3 1 0 2 1 3 2 3 2 2 5 5 4 3 4 7 9 10 10 10 10 11 11 12 11 11 12 14 13 15 15
5 5 6 5 7 7 8 8 9 9 8 7 7 7 7 6 6 6 6 5 6 5 5 5 5 5 4 4 5 6 5 6 5 5 4 4 4 4 4 3 3 3 3 3 3 4 4 4 3 4 4 4 4 3 2 3 2 1 2 2 2 3 3 3 5 4 4 4 3 9 9 9 10 10 10 10 11 11 11 12 13 15 14 15 15
8 6 5 5 6 5 6 7 9 8 8 7 6 6 6 6 7 6 7 6 6 6 6 5 6 5 4 4 7 6 5 6 5 5 5 4 4 4 4 4 4 4 4 5 5 5 5 5 5 4 2 2 4 3 2 2 2 3 2 1 2 2 2 4 5 4 3 4 4 9 8 9 10 10 11 11 11 11 12 12 12 13 12 15 15
7 7 7 7 6 6 6 6 8 8 7 7 6 6 5 7 7 7 7 8 7 6 6 7 5 7 4 4 5 6 6 6 4 5 5 5 5 6 5 5 5 5 5 5 5 4 4 3 3 2 1 2 1 3 2 1 2 4 2 2 3 3 3 3 5 5 4 4 3 7 9 9 10 11 11 11 11 11 11 11 13 14 15 16 16
10 9 8 8 7 8 7 7 7 8 7 7 5 4 4 5 7 7 6 7 6 6 6 5 5 5 4 4 4 5 3 6 5 5 5 6 6 5 6 6 6 6 5 6 5 3 4 2 0 1 3 3 3 3 3 2 4 3 3 2 2 2 2 2 5 5 4 4 3 6 9 9 10 11 11 12 12 12 12 12 14 14 16 16 16
11 11 9 9 7 8 8 9 8 8 7 6 5 5 5 4 4 5 6 6 6 6 5 5 6 6 4 4 5 5 5 6 6 5 5 5 3 4 6 5 5 6 4 5 5 3 2 1 2 3 4 2 2 2 1 1 2 3 2 3 0 1 3 3 5 5 4 3 4 4 8 9 9 11 12 12 12 12 13 13 14 14 16 15 15
10 11 9 9 8 8 7 9 8 8 7 7 5 6 6 5 4 5 5 4 5 6 5 6 6 6 6 4 4 5 5 5 6 6 5 4 4 4 4 4 4 5 5 5 2 1 2 4 3 3 1 1 2 1 0 0 2 3 2 3 2 2 4 3 4 5 4 4 4 3 5 9 9 10 12 12 13 13 13 13 13 14 15 15 15
11 11 10 9 9 10 9 8 9 8 9 7 6 7 7 6 5 5 6 4 4 4 4 5 6 6 5 5 4 5 4 5 6 5 5 5 5 5 4 4 5 5 4 3 5 4 3 3 1 1 1 1 3 2 1 1 2 3 1 2 0 5 4 3 4 3 5 5 4 4 4 5 9 9 11 12 13 13 13 14 15 15 15 15 15
8 11 10 11 12 10 10 9 9 8 9 9 8 7 6 6 6 6 6 4 5 3 5 6 6 5 5 6 5 5 4 5 6 6 6 6 5 5 4 5 5 5 3 4 3 1 0 1 1 1 2 2 1 2 1 2 1 1 0 1 3 4 3 4 4 5 7 5 5 4 4 4 5 8 11 9 11 13 13 14 15 14 15 15 15
8 8 10 12 10 8 8 8 8 9 9 8 8 7 7 7 7 6 6 6 6 5 5 6 6 6 6 7 6 5 4 5 6 5 6 6 5 5 5 6 4 4 5 3 3 2 2 1 3 1 3 2 3 4 2 1 1 1 2 3 6 5 4 4 4 5 6 6 5 4 4 3 4 4 5 9 10 11 13 14 15 14 14 14 15
8 8 12 12 11 10 9 8 10 10 9 8 8 7 6 7 7 7 7 7 7 7 6 6 6 6 7 7 7 6 4 4 5 7 6 6 6 6 5 7 5 4 5 4 4 3 3 5 2 3 1 1 1 1 1 1 0 1 3 4 5 4 4 4 5 5 5 4 5 4 5 4 3 3 4 4 7 10 12 13 13 13 14 15 14
10 10 10 10 12 11 10 10 11 12 11 11 8 8 7 6 7 7 7 7 7 7 7 6 6 6 7 7 7 6 5 4 5 5 7 6 6 7 7 5 5 5 5 4 3 4 4 2 5 4 2 1 2 1 2 3 2 1 2 4 5 5 4 5 6 5 4 5 5 4 5 4 3 3 3 4 4 6 9 10 11 11 12 14 15
10 11 11 11 11 12 12 11 13 13 13 12 9 7 8 7 7 8 7 7 8 8 7 6 6 6 6 7 7 7 6 5 5 5 7 6 6 6 6 5 5 5 5 3 4 5 4 4 3 3 3 2 3 3 1 2 2 1 1 4 4 5 4 5 6 5 5 6 4 4 4 4 4 5 4 5 4 4 6 7 9 10 10 11 14
12 11 11 12 13 12 11 11 11 11 11 11 10 9 9 7 7 7 6 7 7 7 7 6 6 6 7 7 7 8 7 6 5 6 6 7 6 6 6 5 6 6 6 4 6 3 4 5 4 1 4 3 3 3 2 1 0 1 1 3 5 4 4 6 5 5 7 5 4 4 4 4 4 4 4 4 4 3 2 4 6 6 7 8 12
12 13 11 11 10 11 10 11 11 11 10 10 9 7 7 7 6 7 6 7 6 6 7 7 7 6 7 8 8 8 8 7 6 6 7 7 6 6 5 5 6 6 6 5 3 4 4 4 5 2 1 4 6 4 3 2 0 1 1 1 4 4 5 4 5 6 5 5 5 3 3 4 4 4 4 5 4 4 3 3 4 4 5 9 11
12 12 12 11 11 11 10 9 10 10 9 9 8 7 7 8 8 6 6 7 7 8 8 9 8 8 8 9 8 9 8 8 7 7 7 7 6 6 6 5 6 6 6 5 5 6 6 5 4 4 4 2 1 4 3 2 2 3 3 2 2 5 4 5 4 5 5 4 4 3 4 3 4 4 4 4 5 4 4 4 4 3 3 7 11
12 13 14 13 13 12 12 13 11 11 10 10 10 10 10 9 8 10 10 10 10 9 8 8 9 9 9 9 10 9 10 10 9 8 8 7 7 6 6 5 6 7 7 7 6 7 6 6 6 4 5 3 1 1 2 4 2 3 5 2 2 2 3 4 5 5 4 4 5 4 2 5 3 4 4 5 4 4 4 4 3 3 4 4 6
13 14 15 15 12 12 13 13 10 11 11 11 10 10 10 11 12 12 11 10 9 9 10 9 10 9 10 10 10 11 11 11 10 9 9 8 8 7 7 7 7 7 7 7 6 6 6 5 5 3 1 5 4 4 4 3 1 3 4 1 2 2 2 3 4 3 4 4 4 4 4 4 4 4 3 4 4 4 3 3 3 3 4 5 5
14 13 13 11 12 12 13 13 12 12 11 11 11 11 9 8 8 6 9 7 8 9 9 10 9 10 11 11 11 11 11 10 11 10 9 9 9 8 8 7 7 7 7 7 6 6 7 7 7 7 4 1 2 3 5 3 3 3 3 5 2 3 1 2 1 1 4 4 4 4 3 4 3 3 4 4 4 4 3 3 3 4 5 5 5
11 10 11 14 13 12 12 13 13 12 11 11 11 9 8 6 4 4 5 7 7 8 8 8 9 9 11 11 10 11 11 11 11 11 10 10 10 9 8 7 8 7 8 7 6 8 7 7 6 7 7 4 3 4 3 4 4 6 4 3 5 5 3 5 3 1 0 4 4 3 3 3 3 2 4 5 4 4 3 3 4 4 5 5 5
13 13 14 14 13 16 14 12 11 12 11 11 11 9 7 7 6 4 4 5 2 6 7 8 11 10 9 10 11 10 12 12 12 12 11 11 11 10 9 8 8 8 8 8 8 8 8 8 9 7 7 7 6 4 4 3 4 4 6 4 2 1 5 4 5 1 0 2 0 2 3 4 4 3 4 3 3 3 3 4 4 4 4 5 5
14 15 15 16 15 13 12 11 10 11 12 11 12 11 10 10 10 10 10 10 11 10 13 14 12 12 13 8 8 11 12 12 12 12 12 11 11 11 10 9 9 8 8 8 8 7 8 8 8 8 8 6 8 6 6 3 3 4 4 4 4 4 5 4 7 4 1 1 1 1 2 4 4 4 3 4 4 3 2 4 4 4 4 5 5
16 14 14 14 14 12 13 13 12 11 11 12 13 12 12 11 13 14 13 13 13 11 10 9 10 9 7 9 9 8 10 12 11 11 12 12 11 10 10 10 9 8 8 8 9 9 8 9 8 8 8 7 6 7 8 7 1 2 1 1 2 2 3 8 7 4 4 1 1 2 1 2 4 4 4 4 4 4 1 3 5 5 4 4 6
17 13 14 13 15 16 14 14 12 12 12 12 14 14 14 13 13 13 12 12 13 12 11 10 8 8 9 10 9 9 9 10 11 11 11 11 10 9 9 9 8 8 8 9 9 8 7 7 9 9 8 8 8 8 8 7 8 5 3 3 2 2 1 1 2 8 7 8 5 3 3 2 0 3 4 4 4 4 3 2 5 5 5 4 5
14 15 15 15 15 14 14 13 14 13 12 14 14 15 14 14 14 13 13 11 11 9 7 7 8 8 10 10 10 10 10 10 10 10 10 10 10 10 9 9 8 8 8 8 8 8 9 8 8 8 8 7 7 7 7 8 8 7 4 2 2 2 0 0 1 3 4 5 2 6 4 1 2 1 3 2 4 4 4 4 5 6 5 5 5
15 15 14 12 13 13 14 15 16 14 13 13 14 15 15 13 14 15 16 13 10 8 6 9 9 9 11 12 11 11 10 10 10 10 10 10 10 10 10 11 10 9 9 8 8 8 8 8 9 9 9 9 7 8 8 7 8 7 8 7 7 2 1 1 1 2 3 3 7 9 6 7 5 4 0 1 3 3 2 3 5 5 5 5 4
12 13 13 13 13 13 14 16 18 14 13 14 15 16 15 14 15 16 17 16 14 11 10 10 10 10 12 12 11 11 10 11 10 11 11 11 12 12 11 11 9 9 9 9 9 8 8 9 8 9 9 9 8 7 7 5 7 7 7 8 9 9 8 7 8 6 5 3 3 3 3 4 6 3 4 4 3 3 2 4 6 5 5 5 3
Wind_Direction
153 153 159 136 125 124 123 120 115 113 109 105 101 95 93 93 94 95 95 93 88 87 89 84 90 89 87 86 83 83 79 78 77 78 81 82 86 89 87 84 83 85 82 81 82 78 77 77 76 74 72 70 69 66 65 64 63 61 61 63 64 65 68 75 75 72 71 68 65 62 62 64 63 63 61 59 55 52 50 58 54 37 34 45 41
145 142 134 133 127 125 123 120 118 115 110 106 102 100 97 95 93 88 84 83 87 90 91 93 93 99 98 92 90 89 86 83 82 80 80 80 80 83 86 86 84 82 82 82 82 81 79 77 75 73 71 70 67 66 66 67 66 63 58 53 49 48 54 71 79 76 75 73 69 66 70 70 67 63 62 59 57 53 46 46 49 47 31 42 49
123 129 133 127 124 126 124 120 118 116 112 106 103 103 101 99 96 95 96 102 98 93 94 95 99 100 101 101 93 88 88 88 87 86 85 90 88 91 89 87 86 84 83 81 79 79 78 77 75 72 70 68 67 67 69 68 67 61 54 49 44 41 42 54 89 87 80 77 74 65 54 60 66 64 59 58 56 54 55 52 44 39 44 44 47
122 130 123 123 125 124 123 119 119 114 110 108 106 105 108 107 102 96 101 91 89 90 90 90 90 96 104 99 93 92 91 92 89 86 85 92 93 89 91 91 88 86 86 84 83 82 80 79 76 73 72 70 70 70 70 69 64 58 52 47 44 40 45 64 73 88 86 81 77 68 53 28 47 61 61 56 51 50 45 46 47 42 34 38 38
123 131 126 115 111 119 124 126 122 116 113 109 108 108 106 103 105 109 103 99 106 107 104 100 98 97 100 101 99 96 94 90 90 91 89 86 86 89 93 95 94 93 89 84 82 81 80 79 78 76 73 70 69 70 68 65 58 53 47 41 38 39 43 56 65 74 77 77 77 67 53 38 23 60 56 52 51 46 50 47 42 40 44 45 30
133 134 128 119 115 122 128 126 122 120 117 112 111 111 105 105 108 100 102 105 102 98 97 96 99 99 100 99 99 100 98 97 94 91 90 88 87 88 90 93 98 98 95 91 87 86 83 80 77 75 72 68 68 67 65 59 54 49 45 41 36 38 52 60 62 68 73 64 59 59 60 46 31 39 55 57 56 44 48 50 44 46 46 43 35
136 135 128 126 126 128 128 127 125 124 119 116 114 112 114 114 111 107 106 105 105 103 103 103 100 99 99 100 102 100 98 99 97 93 90 89 88 89 87 88 88 91 93 90 86 81 78 77 76 73 72 69 66 63 60 55 51 46 43 41 39 40 60 65 64 63 70 73 63 57 61 69 51 338 53 61 57 48 47 48 49 43 44 47 42
131 130 131 130 129 130 129 131 131 127 126 121 118 119 122 124 116 108 107 110 106 101 102 103 101 102 101 105 108 104 97 92 92 92 92 91 89 86 86 91 96 94 90 91 87 84 80 78 76 73 72 69 65 60 55 50 46 41 39 39 42 40 56 66 59 62 57 60 64 53 43 25 13 332 65 58 55 50 50 47 45 43 43 56 67
127 129 125 123 125 130 135 138 136 134 131 126 123 119 110 115 117 113 112 109 109 110 109 105 106 104 102 104 96 98 97 94 93 93 89 85 86 88 93 96 94 91 94 91 88 87 84 81 78 75 73 69 64 58 53 48 45 42 40 38 36 38 38 55 47 40 47 57 57 49 43 34 17 353 62 62 60 54 53 55 35 38 45 31 30
115 109 114 118 123 130 137 140 139 139 134 130 129 126 121 124 117 115 116 112 111 113 114 115 112 107 105 106 106 100 97 97 93 93 95 94 89 86 88 93 91 90 87 88 91 91 87 84 81 78 75 70 64 57 51 46 41 38 35 35 32 28 25 42 56 53 50 49 53 50 42 37 22 17 39 55 56 55 58 69 49 37 43 46 27
108 109 106 111 121 132 141 138 139 136 137 136 133 129 127 127 124 125 124 121 128 122 111 106 105 108 106 101 101 102 99 97 95 98 94 93 92 88 85 88 91 90 87 89 89 87 87 83 82 80 76 71 65 57 50 44 40 36 34 32 29 26 23 23 48 55 57 52 47 38 36 29 16 11 38 37 47 48 110 34 36 33 16 27 35
108 110 110 111 124 129 139 138 137 134 141 140 132 131 132 133 131 125 122 122 114 107 113 114 107 108 105 103 101 100 101 100 105 106 102 95 92 91 89 89 90 89 87 86 91 90 88 86 81 78 76 72 67 60 52 45 40 35 34 31 27 25 25 35 51 46 60 61 52 40 31 26 359 21 32 35 25 27 33 27 24 26 22 24 21
117 116 112 113 114 136 138 142 139 137 138 135 133 135 138 140 132 134 126 120 117 113 114 113 113 109 104 102 101 101 101 102 106 103 92 93 97 96 96 93 91 90 89 87 84 87 85 81 79 76 75 73 66 58 53 47 41 35 32 31 31 34 30 41 49 56 59 65 53 39 29 18 6 18 20 33 38 29 28 28 24 28 23 24 5
125 121 119 119 121 136 134 151 140 133 130 133 137 140 142 136 128 116 117 126 123 120 117 115 112 109 108 108 107 107 109 110 111 111 105 100 101 99 98 98 94 92 90 88 85 84 84 84 83 78 74 72 66 58 50 44 40 35 28 30 32 37 29 25 33 64 69 56 43 38 25 11 7 14 18 13 34 29 30 29 30 28 26 30 18
126 128 126 118 116 125 129 147 138 128 132 132 133 135 137 134 126 123 126 129 125 122 119 117 116 113 112 113 118 115 107 103 103 106 98 102 100 99 103 101 99 95 95 91 89 85 85 84 81 80 77 73 69 62 53 41 30 25 23 19 18 29 43 24 13 47 78 70 43 35 22 4 12 13 9 14 25 27 30 31 30 26 28 22 18
128 133 129 123 122 120 110 123 123 123 125 126 122 117 118 119 123 128 131 130 126 124 121 120 119 117 115 110 104 96 101 108 112 110 107 110 109 109 110 105 103 101 96 94 90 85 83 82 81 81 80 77 72 66 57 47 27 15 10 7 11 12 16 35 36 55 71 63 53 39 14 3 10 9 2 7 23 23 28 25 26 23 20 17 15
129 133 129 129 131 128 121 112 113 109 108 108 112 114 115 122 124 128 129 128 126 123 123 123 122 120 106 101 100 100 99 94 95 96 106 99 92 95 103 105 103 99 96 94 90 85 84 85 86 85 84 79 72 67 64 48 24 8 3 3 358 356 353 23 48 85 72 61 62 40 12 4 9 6 5 10 13 18 22 22 22 20 18 16 10
133 135 134 136 134 133 129 129 119 106 105 108 111 110 110 115 118 117 121 124 121 124 124 122 115 108 105 102 101 102 96 87 73 64 60 79 90 105 106 100 100 96 99 90 91 91 90 90 91 89 88 86 81 78 67 42 21 3 345 351 352 346 346 357 79 96 83 59 52 43 24 11 11 7 8 7 23 20 26 24 24 19 21 15 13
140 138 141 142 140 137 139 139 128 123 118 116 111 108 108 109 113 115 115 116 115 110 106 105 107 104 105 104 98 93 87 84 80 76 66 59 61 62 87 97 106 107 106 101 98 100 101 101 98 97 93 89 97 99 332 291 287 311 318 339 340 338 340 23 58 95 86 69 47 37 17 18 12 6 7 12 29 27 28 26 21 17 22 17 21
144 146 149 149 145 143 147 145 142 137 128 127 119 114 109 109 113 116 118 121 122 119 119 117 115 114 115 112 114 110 106 94 92 81 75 66 61 69 90 107 110 109 106 103 101 106 109 110 107 101 90 86 25 305 310 306 310 311 334 342 351 332 341 32 70 67 66 57 47 34 20 20 18 11 9 20 29 33 31 24 21 23 23 27 32
141 161 153 154 149 150 154 150 156 144 135 131 125 119 120 108 106 118 125 127 129 130 128 123 121 126 125 126 121 119 120 117 97 99 82 70 63 61 70 83 88 92 102 108 109 107 113 117 121 106 106 52 342 318 316 318 319 313 342 359 341 333 338 46 80 89 67 46 39 28 26 25 24 21 20 28 37 39 34 27 29 32 34 39 39
153 166 158 155 153 157 159 158 160 152 145 139 135 131 134 119 120 122 120 127 130 127 132 135 136 142 143 139 136 138 131 121 119 114 112 100 75 75 82 105 95 77 103 118 131 137 142 164 207 226 219 147 307 334 317 309 310 308 322 336 337 319 43 71 78 89 73 38 40 21 39 37 28 33 34 41 45 43 39 35 38 37 38 43 42
188 180 155 160 161 160 166 161 168 156 150 144 142 144 144 132 132 134 131 141 145 141 147 143 149 155 161 155 136 130 135 133 132 134 131 120 122 104 111 107 115 130 142 171 158 198 215 221 229 236 244 151 216 284 286 272 287 267 272 301 322 25 30 67 89 89 79 62 38 25 41 40 31 38 46 50 50 46 38 40 40 43 42 45 43
188 190 166 167 164 161 170 167 164 153 149 151 149 154 148 141 144 147 147 156 161 157 158 160 167 169 174 171 134 136 134 134 133 129 127 131 134 144 162 161 157 188 241 294 275 257 249 245 241 251 268 257 204 228 251 254 252 24 314 132 58 47 24 42 85 90 84 59 48 41 43 40 29 37 44 50 51 46 40 38 43 49 46 49 48
182 186 168 176 165 164 168 168 152 152 154 157 159 168 161 154 155 156 158 165 177 172 171 176 179 183 183 179 157 144 152 140 137 133 143 139 153 170 181 198 206 222 212 231 248 255 271 253 259 259 251 231 240 212 176 116 285 154 98 49 53 45 339 46 100 97 81 80 68 62 50 39 33 39 43 46 50 49 47 48 53 55 55 57 56
175 177 183 176 171 170 159 163 149 154 159 163 168 176 168 161 161 168 164 173 180 187 186 192 195 195 180 178 148 149 158 143 146 149 154 158 166 192 196 192 197 218 196 219 229 230 243 243 241 241 235 220 215 181 171 176 219 42 68 31 28 36 328 63 100 99 100 88 73 72 59 42 36 36 42 47 53 53 53 53 55 59 58 62 59
181 187 169 181 168 175 155 151 152 153 160 167 172 171 179 173 168 171 166 183 189 190 204 194 196 208 164 159 142 153 152 147 147 155 165 175 190 194 192 197 201 209 197 202 220 219 219 226 230 245 241 203 211 200 201 224 227 91 118 96 23 31 360 88 111 112 114 90 85 82 69 55 43 42 45 54 57 57 60 62 63 67 68 68 70
171 177 173 178 170 177 160 150 149 151 162 167 163 173 174 170 174 176 173 181 187 191 196 193 178 195 167 162 159 156 148 142 170 170 191 191 204 203 196 192 206 218 199 198 213 211 227 230 218 237 67 23 5 319 273 203 97 122 116 86 41 352 27 87 113 127 121 108 97 90 87 68 53 50 52 55 58 63 68 71 72 72 70 72 69
174 174 175 174 177 178 160 160 154 150 159 168 160 172 165 156 168 178 179 175 188 185 184 183 171 187 162 158 156 162 145 156 177 189 192 189 202 199 189 200 186 213 182 212 204 221 240 256 348 143 103 66 30 18 346 300 82 131 136 88 41 318 60 97 110 125 126 121 103 94 89 74 61 59 58 57 61 66 73 73 77 78 76 74 70
176 175 170 179 175 171 165 169 165 155 155 164 163 165 192 169 194 177 171 167 188 182 173 179 182 178 179 174 173 170 176 170 183 187 182 211 207 185 178 192 180 204 181 203 221 193 225 71 149 80 54 53 29 317 19 313 75 147 164 123 329 264 106 113 113 127 136 120 101 90 84 75 69 67 63 62 67 72 71 72 78 80 80 77 71
172 173 173 176 174 167 170 170 170 163 155 166 163 178 189 184 192 195 178 163 192 181 172 176 178 182 185 189 183 183 185 178 180 184 193 194 206 185 195 204 188 207 197 207 232 159 177 137 133 136 107 47 268 239 101 87 157 145 202 129 231 66 115 110 102 125 130 130 107 90 76 71 67 65 70 67 70 70 71 72 73 77 80 77 71
176 176 172 170 169 176 175 169 173 169 164 169 164 179 191 178 178 183 182 193 184 162 178 172 172 183 187 196 200 194 189 188 180 179 186 182 189 196 209 198 205 212 194 171 177 186 139 161 164 197 176 162 244 314 328 24 144 197 200 198 255 99 109 111 90 63 83 107 120 104 94 77 68 69 69 67 73 71 70 73 73 72 72 70 68
187 172 169 168 173 176 176 176 170 172 172 175 177 177 185 175 170 177 177 191 201 176 176 184 174 184 191 198 211 201 180 187 190 175 177 179 182 196 214 219 215 199 178 193 149 137 41 351 327 223 203 212 310 304 226 107 136 339 18 321 87 111 120 103 95 79 88 101 116 121 105 94 84 73 75 58 68 75 73 74 73 73 72 68 64
186 180 164 173 176 172 175 173 172 175 181 176 175 173 182 178 171 173 172 181 198 189 197 195 178 183 188 195 208 207 196 183 183 177 172 177 190 196 203 225 222 179 187 166 160 168 218 209 255 116 214 235 243 219 166 145 22 360 43 33 91 130 125 97 82 92 99 102 116 113 117 111 95 80 78 71 65 71 76 76 73 68 67 67 64
177 184 180 178 176 175 172 176 177 181 181 182 181 184 176 175 176 176 176 178 188 193 197 196 188 183 183 192 198 204 208 181 186 167 177 178 191 206 200 213 196 177 167 191 169 196 190 219 184 178 191 127 177 253 118 103 114 164 67 81 114 122 112 106 90 90 98 106 91 90 99 111 121 103 88 91 73 73 73 75 75 71 65 61 57
177 186 183 177 180 179 177 175 178 181 184 187 186 183 180 181 178 182 177 181 184 191 197 197 190 180 182 185 193 200 210 189 186 183 179 178 182 197 205 200 185 174 182 168 150 202 207 207 199 156 143 62 82 69 54 85 66 80 85 90 116 124 117 107 100 96 109 91 87 89 86 99 105 111 111 101 97 88 87 83 78 72 66 62 57
183 176 182 180 182 182 181 176 180 182 184 186 183 184 180 182 183 183 183 182 185 190 194 198 188 179 185 183 190 195 212 195 188 190 184 193 189 199 205 197 180 176 187 170 177 197 160 164 188 179 145 148 124 135 66 77 79 326 120 92 110 127 122 120 117 114 93 94 97 87 87 81 103 111 106 110 111 90 75 87 91 86 73 60 55
191 183 177 179 183 182 185 184 181 182 182 184 183 183 186 180 182 185 178 187 193 188 190 189 198 188 184 188 188 193 206 206 186 191 191 196 192 197 205 194 186 180 185 168 199 189 174 153 171 201 148 119 135 129 142 67 55 6 360 73 133 122 123 123 124 110 103 103 96 94 109 110 105 98 92 98 110 109 87 68 66 55 67 63 57
194 190 180 179 176 183 182 186 180 179 181 181 179 177 180 181 180 182 182 192 196 196 189 193 202 191 187 190 187 191 200 208 197 188 191 196 201 205 190 190 185 183 181 182 166 160 161 148 150 123 75 145 154 171 167 170 64 61 45 140 140 135 124 119 116 107 110 120 117 129 100 95 112 101 88 94 104 109 101 81 66 59 52 60 58
194 192 187 182 181 177 184 185 189 178 174 179 176 173 176 181 185 190 193 197 198 196 199 198 198 197 192 187 189 190 194 199 202 197 194 192 196 204 201 180 186 180 183 186 189 176 169 156 164 143 136 94 111 151 136 125 89 51 52 101 150 134 120 124 106 114 125 121 120 103 101 99 90 105 106 104 99 97 85 79 89 92 80 69 66
193 194 193 191 188 181 179 190 188 179 176 180 184 181 181 185 192 193 196 195 197 198 198 201 201 200 193 188 188 191 192 195 198 194 198 197 199 201 203 192 183 188 186 195 197 194 188 174 169 148 153 150 185 183 160 113 101 31 52 45 52 61 107 123 119 123 121 127 116 103 96 78 80 121 137 119 108 104 104 96 86 80 89 82 64
200 195 197 196 192 188 189 191 183 185 185 183 187 195 196 192 187 193 189 189 190 194 201 203 201 200 197 189 189 191 192 193 194 194 196 194 199 202 202 199 188 192 193 195 197 186 179 163 146 138 157 147 187 192 199 111 42 145 133 80 12 9 15 93 123 131 130 110 102 98 85 91 90 125 126 108 116 112 118 121 100 83 65 80 78
196 197 200 195 196 199 200 193 192 188 189 183 183 198 201 202 197 191 188 192 205 201 201 199 195 198 200 193 190 191 190 193 193 194 194 198 200 198 202 199 193 188 193 201 181 182 176 171 167 161 173 171 155 201 182 154 169 147 124 100 165 136 322 56 349 161 123 104 95 98 105 95 109 131 135 110 112 106 103 105 81 71 74 84 85
194 198 199 201 202 205 202 199 196 195 192 193 190 191 195 198 206 189 199 193 195 201 205 205 202 202 203 196 193 191 189 192 192 193 196 197 198 199 199 199 198 192 191 194 185 185 183 178 174 172 152 167 179 218 204 177 144 133 153 186 181 130 166 231 181 238 66 112 103 129 124 122 106 91 92 111 130 103 76 74 71 88 94 93 87
197 197 198 201 204 206 203 197 196 197 197 193 192 182 174 189 196 199 191 207 219 196 199 212 208 205 199 199 198 189 191 193 193 194 195 197 198 199 198 200 199 197 193 194 189 190 188 183 178 168 174 174 190 182 222 195 192 184 142 120 85 154 210 195 126 215 147 109 151 158 154 126 109 106 102 94 100 101 100 68 83 82 92 90 85
201 202 200 203 204 204 200 195 195 196 198 195 190 189 190 193 189 194 199 201 207 197 204 204 200 203 207 196 191 196 194 195 195 196 196 196 198 200 199 199 201 198 194 196 192 188 189 183 186 175 185 188 172 173 192 234 207 204 199 167 157 171 177 190 135 207 248 287 214 267 194 147 131 104 84 112 114 100 101 96 88 95 94 92 86
207 202 203 205 203 202 200 198 194 194 194 193 189 191 197 200 202 206 205 204 206 212 211 208 203 209 205 206 206 201 202 200 199 197 198 198 198 199 201 202 200 196 193 192 195 193 189 188 182 179 185 176 161 176 182 195 141 277 177 155 147 169 163 147 194 103 166 278 292 269 251 186 139 118 116 137 150 119 126 121 103 107 95 95 88
204 196 204 203 202 204 199 199 197 193 193 190 190 192 197 200 205 210 212 213 212 212 201 204 202 196 204 210 211 211 208 208 204 204 201 200 201 200 201 203 200 195 186 197 196 194 188 189 183 184 181 177 177 177 187 185 179 214 183 153 148 108 171 219 188 168 156 163 223 264 277 301 360 148 150 158 171 154 153 150 113 109 104 93 91
199 199 202 201 203 203 202 202 203 200 196 191 193 195 196 199 204 209 215 219 217 217 202 203 203 197 205 209 211 214 212 211 210 206 206 204 202 204 202 204 201 198 190 194 193 185 183 180 185 184 183 183 185 187 175 187 184 189 143 202 134 182 195 33 114 104 136 140 199 188 204 329 354 290 173 182 194 180 165 170 125 123 110 99 86
202 203 203 200 202 201 203 203 208 204 198 194 195 197 197 196 204 210 214 216 213 212 192 203 204 199 209 208 209 211 211 211 210 207 206 205 203 205 205 206 204 199 194 194 189 188 188 185 186 187 186 186 190 182 187 185 191 183 181 164 170 124 127 267 219 118 58 113 164 194 189 169 177 256 264 220 202 201 170 136 108 112 103 97 86
204 201 202 202 202 201 203 204 209 205 199 199 194 199 198 199 207 208 211 213 208 205 204 208 203 203 210 209 207 210 207 210 205 208 205 203 204 203 206 205 201 197 194 192 192 188 187 186 187 187 188 186 187 184 182 186 188 183 178 172 184 182 183 181 192 189 151 148 88 161 159 182 176 181 251 204 226 225 172 129 121 113 108 99 105